Location: Unspecified
(0.0000°N, 0.0000°E)
Time: 22:34:26
(UTC+00:00)

STARLINK-11272 [DTC] - Visible Passes

Search period start: 05 June 2026 00:00
Search period end: 15 June 2026 00:00
Orbit: 359 x 360 km, 53.2° (Epoch: 4 June)

Date Brightness Start Highest point End Pass type
(mag) Time Alt. Az. Time Alt. Az. Time Alt. Az.
10 Jun 4.7 19:15:06 10° N 19:16:40 19° NE 19:16:40 19° NE visible
11 Jun 4.8 19:43:21 10° NW 19:45:06 28° WNW 19:45:06 28° WNW visible
12 Jun 3.9 18:37:10 10° N 18:39:48 28° NE 18:41:49 14° ESE visible
13 Jun 4.5 19:05:56 10° WNW 19:08:32 28° SW 19:10:20 16° S visible
